User: anonymous   Login
Location: Pine Mountain Observatory
(43.7910°N, 120.9377°W)
Time: 00:12:14
(UTC-08:00)
Language:

Meteor 2-19 Rocket - Orbit

View from above orbital plane
View from above orbital plane
View from above satellite
View from above satellite

Ground track
Ground track

The orbit data is extracted from the following two-line orbital elements,

1 20671U 90057B   16338.53653133  .00000004  00000-0 -98928-5 0  9993
2 20671  82.5453 167.6371 0015934 142.9159 245.6407 13.84604906335997
Epoch (UTC): 03 December 2016 12:52:36
Eccentricity: 0.0015934
inclination: 82.5453°
perigee height: 936 km
apogee height: 959 km
right ascension of ascending node: 167.6371°
argument of perigee: 142.9159°
revolutions per day: 13.84604906
mean anomaly at epoch: 245.6407°
orbit number at epoch: 33599

The dashed part of the orbit path shows where the satellite is in the earth's shadow,  

DLR